When you browse on this site, cookies collect data to enhance your experience and personalize the content and advertising you see.
Visit our Privacy Policy to learn more. By continuing to use the site, you agree to this use of cookies and data.
  • In Hungary
  • List of Countries
  • For 7 days
  • Water Temperature
  • Weather Map
  • News
  • Weather Widgets
  • user-avatar
    Login

    Hourly Weather Rzepiska

    Today, 7 December, Saturday

    Time Temperature Precipitation Wind Pressure Humidity
    00:00 -4°C° 0 mm 5 mps 741 mmHg 64%
    01:00 -4°C° 0 mm 5 mps 741 mmHg 64%
    02:00 -4°C° 0 mm 5 mps 741 mmHg 63%
    03:00 -4°C° 0 mm 5 mps 740 mmHg 62%
    04:00 -2°C° 0 mm 5 mps 740 mmHg 60%
    05:00 -2°C° 0 mm 5 mps 739 mmHg 59%
    06:00 -2°C° 0 mm 5 mps 739 mmHg 59%
    07:00 -2°C° 0 mm 5 mps 739 mmHg 59%
    08:00 -2°C° 0 mm 5 mps 739 mmHg 60%
    09:00 -2°C° 0 mm 6 mps 738 mmHg 58%
    10:00 -2°C° 0 mm 6 mps 738 mmHg 57%
    11:00 -1°C° 0 mm 6 mps 738 mmHg 56%
    12:00 -1°C° 0 mm 6 mps 738 mmHg 64%
    13:00 -1°C° 0 mm 6 mps 737 mmHg 73%
    14:00 -1°C° 0 mm 6 mps 737 mmHg 82%
    15:00 +1°C° 0 mm 6 mps 736 mmHg 84%
    16:00 +2°C° 0 mm 7 mps 736 mmHg 85%
    17:00 +2°C° 0 mm 7 mps 736 mmHg 87%
    18:00 +2°C° 0.1 mm 7 mps 736 mmHg 89%
    19:00 +3°C° 0.1 mm 7 mps 736 mmHg 90%
    20:00 +3°C° 0.1 mm 7 mps 737 mmHg 91%
    21:00 +3°C° 0 mm 6 mps 737 mmHg 91%
    22:00 +3°C° 0 mm 6 mps 737 mmHg 90%
    23:00 +3°C° 0 mm 6 mps 737 mmHg 89%

    Tomorrow, 8 December, Sunday

    Time Temperature Precipitation Wind Pressure Humidity
    00:00 +3°C° 0 mm 6 mps 737 mmHg 89%
    01:00 +3°C° 0 mm 6 mps 737 mmHg 88%
    02:00 +3°C° 0 mm 6 mps 738 mmHg 88%
    03:00 +2°C° 0.1 mm 6 mps 738 mmHg 87%
    04:00 +1°C° 0.1 mm 6 mps 738 mmHg 86%
    05:00 +1°C° 0.1 mm 5 mps 738 mmHg 85%
    06:00 0°C° 0 mm 5 mps 739 mmHg 86%
    07:00 0°C° 0 mm 5 mps 739 mmHg 87%
    08:00 0°C° 0 mm 4 mps 740 mmHg 88%
    09:00 0°C° 0.1 mm 4 mps 740 mmHg 90%
    10:00 +1°C° 0.1 mm 4 mps 740 mmHg 91%
    11:00 +1°C° 0.1 mm 4 mps 740 mmHg 93%
    12:00 +2°C° 0.1 mm 5 mps 739 mmHg 90%
    13:00 +3°C° 0.1 mm 5 mps 739 mmHg 87%
    14:00 +3°C° 0.1 mm 6 mps 739 mmHg 85%
    15:00 +3°C° 0 mm 6 mps 738 mmHg 83%
    16:00 +3°C° 0 mm 6 mps 738 mmHg 82%
    17:00 +3°C° 0 mm 5 mps 738 mmHg 81%
    18:00 +3°C° 0 mm 6 mps 737 mmHg 79%
    19:00 +3°C° 0 mm 6 mps 737 mmHg 78%
    20:00 +4°C° 0 mm 6 mps 737 mmHg 76%
    21:00 +3°C° 0 mm 7 mps 737 mmHg 77%
    22:00 +3°C° 0 mm 7 mps 736 mmHg 78%
    23:00 +3°C° 0 mm 7 mps 735 mmHg 79%

    Day after tomorrow, 9 December, Monday

    Time Temperature Precipitation Wind Pressure Humidity
    00:00 +3°C° 0.2 mm 7 mps 735 mmHg 80%
    01:00 +3°C° 0.2 mm 7 mps 735 mmHg 82%
    02:00 +4°C° 0.2 mm 7 mps 735 mmHg 84%
    03:00 +4°C° 0.1 mm 6 mps 734 mmHg 85%
    04:00 +4°C° 0.1 mm 6 mps 734 mmHg 86%
    05:00 +4°C° 0.1 mm 6 mps 734 mmHg 88%
    06:00 +4°C° 0.3 mm 6 mps 734 mmHg 89%
    07:00 +4°C° 0.3 mm 6 mps 734 mmHg 90%
    08:00 +4°C° 0.3 mm 6 mps 734 mmHg 91%
    09:00 +4°C° 0.1 mm 6 mps 734 mmHg 90%
    10:00 +4°C° 0.1 mm 6 mps 734 mmHg 88%
    11:00 +5°C° 0.1 mm 6 mps 734 mmHg 87%
    12:00 +5°C° 0 mm 6 mps 734 mmHg 85%
    13:00 +6°C° 0 mm 5 mps 734 mmHg 82%
    14:00 +6°C° 0 mm 5 mps 734 mmHg 80%
    15:00 +6°C° 0 mm 4 mps 734 mmHg 81%
    16:00 +5°C° 0 mm 4 mps 734 mmHg 82%
    17:00 +5°C° 0 mm 3 mps 734 mmHg 83%
    18:00 +5°C° 0 mm 3 mps 734 mmHg 85%
    19:00 +4°C° 0 mm 3 mps 735 mmHg 86%
    20:00 +4°C° 0 mm 3 mps 735 mmHg 88%
    21:00 +4°C° 0 mm 3 mps 735 mmHg 88%
    22:00 +4°C° 0 mm 3 mps 735 mmHg 87%
    23:00 +4°C° 0 mm 3 mps 735 mmHg 87%

    10 December, Tuesday

    Time Temperature Precipitation Wind Pressure Humidity
    00:00 +4°C° 0 mm 3 mps 735 mmHg 88%
    01:00 +3°C° 0 mm 3 mps 735 mmHg 89%
    02:00 +3°C° 0 mm 3 mps 735 mmHg 90%
    03:00 +3°C° 0 mm 3 mps 735 mmHg 91%
    04:00 +2°C° 0 mm 3 mps 735 mmHg 91%
    05:00 +2°C° 0 mm 3 mps 735 mmHg 92%
    06:00 +2°C° 0 mm 3 mps 736 mmHg 92%
    07:00 +1°C° 0 mm 3 mps 736 mmHg 92%
    08:00 +1°C° 0 mm 3 mps 736 mmHg 92%
    09:00 +1°C° 0 mm 4 mps 737 mmHg 89%
    10:00 +1°C° 0 mm 4 mps 737 mmHg 87%
    11:00 +3°C° 0 mm 4 mps 738 mmHg 84%
    12:00 +3°C° 0 mm 4 mps 738 mmHg 83%
    13:00 +3°C° 0 mm 4 mps 738 mmHg 82%
    14:00 +4°C° 0 mm 4 mps 739 mmHg 81%
    15:00 +3°C° 0 mm 4 mps 739 mmHg 82%
    16:00 +3°C° 0 mm 3 mps 739 mmHg 84%
    17:00 +3°C° 0 mm 3 mps 740 mmHg 85%
    18:00 +3°C° 0.2 mm 4 mps 741 mmHg 87%
    19:00 +3°C° 0.2 mm 4 mps 742 mmHg 89%
    20:00 +2°C° 0.2 mm 5 mps 743 mmHg 91%
    21:00 +1°C° 0.2 mm 5 mps 744 mmHg 86%
    22:00 0°C° 0.2 mm 5 mps 745 mmHg 80%
    23:00 -1°C° 0.2 mm 5 mps 746 mmHg 75%

    11 December, Wednesday

    Time Temperature Precipitation Wind Pressure Humidity
    00:00 -1°C° 0 mm 4 mps 746 mmHg 74%
    01:00 -2°C° 0 mm 4 mps 747 mmHg 73%
    02:00 -2°C° 0 mm 3 mps 747 mmHg 72%
    03:00 -2°C° 0 mm 3 mps 748 mmHg 75%
    04:00 -2°C° 0 mm 3 mps 748 mmHg 77%
    05:00 -2°C° 0 mm 3 mps 749 mmHg 79%
    06:00 -2°C° 0 mm 3 mps 749 mmHg 79%
    07:00 -2°C° 0 mm 3 mps 750 mmHg 78%
    08:00 -2°C° 0 mm 2 mps 750 mmHg 78%
    09:00 -1°C° 0 mm 2 mps 750 mmHg 76%
    10:00 -1°C° 0 mm 2 mps 751 mmHg 73%
    11:00 +1°C° 0 mm 2 mps 751 mmHg 71%
    12:00 +1°C° 0 mm 2 mps 751 mmHg 68%
    13:00 +1°C° 0 mm 2 mps 751 mmHg 66%
    14:00 +3°C° 0 mm 1 mps 750 mmHg 64%
    15:00 +2°C° 0 mm 1 mps 751 mmHg 67%
    16:00 +1°C° 0 mm 1 mps 751 mmHg 70%
    17:00 +1°C° 0 mm 1 mps 751 mmHg 73%
    18:00 +1°C° 0 mm 1 mps 750 mmHg 74%
    19:00 -2°C° 0 mm 2 mps 750 mmHg 74%
    20:00 -2°C° 0 mm 2 mps 750 mmHg 74%
    21:00 -2°C° 0 mm 2 mps 750 mmHg 74%
    22:00 -2°C° 0 mm 2 mps 750 mmHg 73%
    23:00 -2°C° 0 mm 3 mps 750 mmHg 73%

    12 December, Thursday

    Time Temperature Precipitation Wind Pressure Humidity
    00:00 -2°C° 0 mm 3 mps 750 mmHg 72%
    01:00 -2°C° 0 mm 3 mps 749 mmHg 72%
    02:00 -3°C° 0 mm 4 mps 749 mmHg 71%
    03:00 -3°C° 0 mm 4 mps 748 mmHg 70%
    04:00 -3°C° 0 mm 4 mps 748 mmHg 68%
    05:00 -3°C° 0 mm 4 mps 748 mmHg 67%
    06:00 -3°C° 0 mm 4 mps 748 mmHg 65%
    07:00 -4°C° 0 mm 4 mps 747 mmHg 63%
    08:00 -4°C° 0 mm 4 mps 747 mmHg 62%
    09:00 -4°C° 0 mm 5 mps 747 mmHg 59%
    10:00 -4°C° 0 mm 5 mps 747 mmHg 56%
    11:00 -4°C° 0 mm 5 mps 747 mmHg 53%
    12:00 -2°C° 0 mm 5 mps 747 mmHg 52%
    13:00 -2°C° 0 mm 5 mps 746 mmHg 50%
    14:00 -2°C° 0 mm 5 mps 746 mmHg 49%
    15:00 -2°C° 0 mm 5 mps 745 mmHg 50%
    16:00 -4°C° 0 mm 5 mps 745 mmHg 52%
    17:00 -3°C° 0 mm 4 mps 745 mmHg 53%
    18:00 -3°C° 0 mm 4 mps 745 mmHg 53%
    19:00 -3°C° 0 mm 4 mps 744 mmHg 53%
    20:00 -3°C° 0 mm 4 mps 744 mmHg 54%
    21:00 -4°C° 0 mm 4 mps 744 mmHg 54%
    22:00 -4°C° 0 mm 4 mps 744 mmHg 54%
    23:00 -4°C° 0 mm 4 mps 744 mmHg 54%
    Show more